Location: Potawatomi Wildlife Park
(41.2308°N, 86.1050°W)
Time: 03:34:07
(UTC-04:00)

Daily predictions for brighter satellites

Satellite Brightness Start Highest point End
(mag) Time Altitude Azimuth Time Altitude Azimuth Time Altitude Azimuth
CZ-3A R/B 4.5 00:06:57 10° NW 00:19:58 55° N 00:19:58 55° N
SL-16 R/B 4.2 03:29:55 28° N 03:29:55 28° N 03:32:47 10° N
Cosmos 2227 Rocket 4.0 03:50:07 27° NNE 03:50:07 27° NNE 03:52:37 10° NNE
ADEOS II 4.2 04:18:17 10° NE 04:22:13 21° E 04:24:12 17° ESE
ARIANE 5 R/B 4.0 04:23:20 10° N 04:25:59 31° N 04:25:59 31° N
Cosmos 2297 Rocket 3.4 04:32:42 34° N 04:32:42 34° N 04:36:10 10° NNE
Resurs 1-4 Rocket 3.5 04:26:31 10° N 04:29:12 30° N 04:29:12 30° N
CZ-4C R/B 3.0 04:37:50 44° N 04:37:50 44° N 04:42:20 10° NNE
Lacrosse 5 rocket 3.9 04:42:10 14° NNE 04:42:10 14° NNE 04:43:01 10° NNE
Cosmos 2026 Rocket 4.0 04:33:52 10° N 04:39:59 75° E 04:40:01 75° E
Atlas Centaur 2 4.4 04:52:29 11° SE 04:52:29 11° SE 04:53:13 10° SE
Cosmos 2279 Rocket 4.1 04:51:39 55° SSE 04:52:58 72° E 04:59:09 10° NNE
CZ-2D R/B 3.5 04:48:35 10° N 04:51:11 26° NNW 04:51:11 26° NNW
Cosmos 1674 Rocket 4.5 04:56:24 45° NE 04:56:24 45° NE 04:59:38 10° NNE
Cosmos 1603 4.2 04:59:47 10° NNW 05:05:22 59° ENE 05:10:58 10° SE
SL-16 R/B 4.5 05:15:01 13° NW 05:15:01 13° NW 05:15:44 10° NW
Cosmos 407 Rocket 3.4 05:11:36 73° WNW 05:11:36 73° WNW 05:16:52 10° NNE
Tiangong 1 3.9 05:16:48 15° ENE 05:16:48 15° ENE 05:17:24 10° ENE
Cosmos 1300 Rocket 4.3 05:16:32 10° NNW 05:19:32 41° NNW 05:19:32 41° NNW
Cosmos 2227 4.1 05:21:14 56° SSW 05:22:30 87° WNW 05:28:10 10° NNE
PSLV R/B 4.5 05:18:32 10° NNE 05:22:35 45° E 05:24:40 25° SSE
Cosmos 2180 Rocket 4.4 05:28:14 36° SSW 05:30:55 71° W 05:37:08 10° N
Cosmos 2227 Rocket 4.0 05:31:57 16° NW 05:31:57 16° NW 05:35:07 10° N
Cosmos 1023 Rocket 4.5 05:30:02 39° S 05:32:02 82° ESE 05:37:19 10° NNE
Cosmos 1943 4.0 05:26:57 10° NNW 05:32:31 51° ENE 05:38:02 10° SE
Okean 3 3.3 05:35:54 67° W 05:36:00 67° W 05:40:17 10° N
Cosmos 405 Rocket 3.4 05:39:18 41° NW 05:39:18 41° NW 05:42:17 10° N
Cosmos 1437 Rocket 4.2 05:35:21 10° N 05:39:02 39° ENE 05:42:46 10° SSE
SL-24 DEB 4.2 05:39:12 10° N 05:43:59 71° W 05:46:28 28° SSW
Cosmos 2263 Rocket 2.7 05:42:06 11° S 05:47:25 58° ESE 05:53:01 10° NNE
Cosmos 1655 Rocket 4.3 05:43:40 10° NNW 05:49:33 42° W 05:53:00 23° SW
GPS 2-05 Rocket1 4.0 05:51:26 26° SSE 05:51:26 26° SSE 05:53:38 10° ESE
Okean O Rocket 1.5 05:49:46 10° NNE 05:54:09 85° ESE 05:57:53 14° SSW
USA 215 4.1 05:49:23 10° ESE 05:55:39 50° NNE 06:01:55 10° NW
Cosmos 1850 Rocket 4.3 05:50:27 10° S 05:55:40 71° ESE 06:01:00 10° NNE
ASTEX 1 3.5 05:52:09 10° N 05:56:56 52° W 05:59:44 24° SW
Cosmos 1378 Rocket 3.8 05:56:19 38° WSW 05:57:23 46° W 06:01:39 10° N
Cosmos 1140 Rocket 3.5 05:55:04 30° SW 05:57:33 60° WNW 06:02:44 10° NNE
IRS-1C Rocket 4.4 05:54:16 10° NNE 05:59:33 69° ESE 06:04:48 10° S
ISS -3.9 05:59:45 56° W 06:00:12 66° SW 06:03:29 10° SE
ADEOS II 2.3 05:57:07 10° N 06:02:09 48° WNW 06:05:08 23° SW
Cosmos 2266 Rocket 4.0 05:58:52 10° NNW 06:05:15 70° W 06:11:36 10° S
Cosmos 1812 3.2 06:05:23 35° WSW 06:06:06 39° WNW 06:09:45 10° N
Abrixas rocket 2.4 06:05:12 38° SSW 06:06:12 61° SSE 06:09:26 10° ENE
Cosmos 1975 2.9 06:05:08 10° N 06:09:15 81° E 06:13:20 10° S
Cosmos 1954 Rocket 4.5 06:07:05 26° WSW 06:09:31 41° WNW 06:14:33 10° N
CZ-4B R/B 3.0 06:08:45 10° NNE 06:14:04 81° WNW 06:19:22 10° SSW
Meteor PRIRODA 3.7 06:11:28 10° NNE 06:15:09 82° ESE 06:18:51 10° S
CZ-4B R/B 3.4 06:11:23 10° N 06:15:21 41° WNW 06:17:34 21° SW
Cosmos 1570 Rocket 4.0 06:10:39 10° NNW 06:15:58 88° ENE 06:21:17 10° SSE
Cosmos 371 Rocket 4.5 06:11:30 10° N 06:16:13 46° ENE 06:20:52 10° SE
Cosmos 2208 Rocket 4.1 06:12:40 10° NNW 06:18:01 83° ENE 06:23:15 10° SSE
Okean 1 Rocket 4.1 06:14:50 10° NNW 06:18:30 25° W 06:20:03 21° WSW
Molniya-1 3.7 06:18:53 23° S 06:19:47 38° SE 06:21:31 10° NE
DELTA 2 R/B (1) 3.6 06:17:51 21° WSW 06:21:37 75° S 06:27:11 10° E
Okean 1 3.4 06:19:00 10° SSW 06:22:53 53° W 06:26:49 10° N
Intercosmos 25 Rocket 3.4 06:20:35 10° S 06:25:42 82° W 06:29:14 10° N
CZ-4C R/B 4.2 06:23:18 10° WNW 06:26:32 15° NNW 06:30:00 10° N
Cosmos 1500 3.8 06:27:18 10° NNW 06:30:42 33° W 06:34:05 10° SSW
CZ-4B R/B 3.7 06:27:11 10° N 06:31:00 81° WNW 06:34:59 10° SSW
COSMO-SKYMED 1 4.0 06:27:58 10° SE 06:32:03 42° ENE 06:36:09 10° N
USA 116 3.3 06:29:02 10° SSE 06:32:27 85° ENE 06:35:38 10° NNW
Cosmos 220 Rocket 4.1 06:32:03 10° SW 06:36:12 52° WNW 06:40:25 10° N
Atlas Centaur 2 3.5 06:35:32 10° SW 06:39:19 20° S 06:42:34 10° SE
Meteor 1-31 Rocket 2.9 06:38:37 10° N 06:42:27 54° WNW 06:46:12 10° SSW
EO 1 Del DPAF 3.2 06:39:32 10° SSE 06:43:21 85° WSW 06:47:12 10° NNW
H-2A R/B 4.4 06:24:44 12° W 06:44:37 32° SW 06:49:43 10° SSE
Cosmos 2084 4.1 06:42:57 10° WNW 06:46:16 28° WSW 06:49:42 10° S
MTI 3.8 06:43:47 10° S 06:46:59 60° W 06:50:13 10° NNW
CZ-2C R/B 3.9 06:43:32 10° S 06:48:03 50° W 06:52:40 10° NNW
Meteor 1-4 Rocket 2.4 06:45:04 10° N 06:48:35 87° W 06:52:02 10° S
Tiangong 1 0.8 06:47:38 12° WNW 06:50:04 68° N 06:52:45 10° E
Okean-O 2.8 06:45:40 10° NNE 06:50:07 83° ESE 06:54:33 10° SSW
Cosmos 1607 4.2 06:47:00 10° SW 06:53:04 53° NW 06:59:18 10° NNE
Cosmos 1814 Rocket 4.5 06:50:04 10° NNW 06:55:11 66° ENE 07:00:20 10° SSE
Feng Yun 1-1 Rocket 4.2 06:52:24 10° NNE 06:57:49 84° WNW 07:03:14 10° SSW
Cosmos 1544 Rocket 4.0 06:55:01 10° NNW 06:59:01 37° W 07:02:59 10° SSW
Cosmos 1975 Rocket 4.5 06:56:22 10° WSW 06:59:36 19° WNW 07:02:50 10° NNW
